Farmington, MO

4:31 AM CST on December 06, 2019 (GMT -0600)
Farmington Regional

Weather History for KFAM - October, 2019

Change the Weather History Date:

Wednesday, October 23, 2019

  Actual Average Record
Temperature  
Mean Temperature 54 °F -  
Max Temperature 71 °F 64 °F 80 °F (2000)
Min Temperature 37 °F 43 °F 30 °F (1998)
Degree Days  
Heating Degree Days 11    
Growing Degree Days 4 (Base 50)    
Moisture  
Dew Point 38 °F    
Average Humidity 54    
Maximum Humidity 83    
Minimum Humidity 30    
Precipitation  
Precipitation 0.00 in - - ()
Sea Level Pressure  
Sea Level Pressure 30.08 in    
Wind  
Wind Speed 8 mph (South)    
Max Wind Speed 20 mph    
Max Gust Speed 25 mph    
Visibility 10 miles    
Events      
Averages and records for this station are not official NWS values.
T = Trace of Precipitation, MM = Missing Value Source: NWS Daily Summary

Daily Weather History Graph

Daily Weather History Graph

Search for Another Location

Airport or City:

Astronomy

Oct. 23, 2019 Rise Set
Actual Time 7:17 AM CDT 6:13 PM CDT
Civil Twilight 6:50 AM CDT 6:40 PM CDT
Nautical Twilight 6:20 AM CDT 7:11 PM CDT
Astronomical Twilight 5:49 AM CDT 7:41 PM CDT
Moon 1:44 AM CDT (10/23) 3:57 PM CDT (10/23)
Length of Visible Light 11h 49m
Length of Day
10h 56m
Waning Crescent, 26% of the Moon is Illuminated
Oct 23
Waning Crescent
Oct 27
New
Nov 4
First Quarter
Nov 12
Full
Nov 19
Last Quarter

Hourly Weather History & Observations

Time (CDT) Temp. Windchill Dew Point Humidity Pressure Visibility Wind Dir Wind Speed Gust Speed Precip Events Conditions
12:56 AM 41.0 °F 39.0 °F 33.1 °F 73% 30.08 in 10.0 mi SSE 3.5 mph - N/A   Clear
1:56 AM 42.1 °F 40.2 °F 33.1 °F 70% 30.08 in 10.0 mi SE 3.5 mph - N/A   Clear
2:56 AM 37.9 °F - 33.1 °F 83% 30.07 in 10.0 mi Calm Calm - N/A   Clear
3:56 AM 39.0 °F - 33.1 °F 79% 30.09 in 10.0 mi Calm Calm - N/A   Clear
4:56 AM 39.9 °F 37.8 °F 33.1 °F 77% 30.10 in 10.0 mi South 3.5 mph - N/A   Clear
5:56 AM 41.0 °F 38.0 °F 34.0 °F 76% 30.09 in 10.0 mi SSE 4.6 mph - N/A   Clear
6:56 AM 42.1 °F 40.2 °F 34.0 °F 73% 30.10 in 10.0 mi SSE 3.5 mph - N/A   Clear
7:56 AM 43.0 °F 38.8 °F 35.1 °F 74% 30.12 in 10.0 mi SSE 6.9 mph - N/A   Clear
8:56 AM 51.1 °F - 39.0 °F 63% 30.13 in 10.0 mi South 6.9 mph - N/A   Clear
9:56 AM 57.9 °F - 37.9 °F 47% 30.12 in 10.0 mi SSW 12.7 mph - N/A   Clear
10:56 AM 62.1 °F - 37.0 °F 39% 30.12 in 10.0 mi SSW 13.8 mph 21.9 mph N/A   Clear
11:56 AM 66.0 °F - 37.9 °F 36% 30.09 in 10.0 mi SSW 16.1 mph 23.0 mph N/A   Clear
12:56 PM 69.1 °F - 39.0 °F 33% 30.05 in 10.0 mi South 18.4 mph 23.0 mph N/A   Clear
1:56 PM 71.1 °F - 37.9 °F 30% 30.03 in 10.0 mi South 17.3 mph 25.3 mph N/A   Clear
2:56 PM 71.1 °F - 37.9 °F 30% 30.02 in 10.0 mi South 18.4 mph 25.3 mph N/A   Clear
3:56 PM 70.0 °F - 39.0 °F 32% 30.02 in 10.0 mi South 19.6 mph 25.3 mph N/A   Clear
4:56 PM 68.0 °F - 39.9 °F 36% 30.02 in 10.0 mi South 17.3 mph 23.0 mph N/A   Clear
5:56 PM 64.9 °F - 42.1 °F 43% 30.04 in 10.0 mi South 15.0 mph 21.9 mph N/A   Clear
6:56 PM 63.0 °F - 41.0 °F 45% 30.05 in 10.0 mi South 15.0 mph 24.2 mph N/A   Clear
7:56 PM 61.0 °F - 42.1 °F 50% 30.08 in 10.0 mi South 13.8 mph 19.6 mph N/A   Clear
8:56 PM 60.1 °F - 42.1 °F 51% 30.10 in 10.0 mi SSW 15.0 mph 20.7 mph N/A   Clear
9:56 PM 60.1 °F - 43.0 °F 53% 30.12 in 10.0 mi SSW 12.7 mph - N/A   Clear
10:56 PM 59.0 °F - 43.0 °F 55% 30.14 in 10.0 mi SSW 10.4 mph - N/A   Mostly Cloudy